K3MJW-2 Weather Reports


Display with metric or nautical units.
time (UTC)temp
F
wind
direction
speed
MPH
gust
MPH
rain 1hr
in
rain 24hr
in
rain mn
in
humidity
%
barometer
mb
20171123112004 25 0 0.0 0.0 0.00 0.01 0.00 77 1022.9
20171123111432 25 0 0.0 0.0 0.00 0.01 0.00 77 1022.8
20171123110432 25 0 0.0 0.0 0.00 0.01 0.00 76 1022.7
20171123110004 25 0 0.0 0.0 0.00 0.01 0.00 75 1022.7
20171123105432 25 0 0.0 0.0 0.00 0.01 0.00 76 1022.7
20171123105003 25 0 0.0 0.0 0.00 0.01 0.00 76 1022.6
20171123104436 25 0 0.0 0.0 0.00 0.01 0.00 75 1022.7
20171123104402 25 0 0.0 0.0 0.00 0.01 0.00 75 1022.7
20171123104004 25 0 0.0 0.0 0.00 0.02 0.00 75 1022.8
20171123103332 25 0 0.0 0.0 0.00 0.02 0.00 74 1022.8
20171123103004 25 0 0.0 0.0 0.00 0.02 0.00 74 1022.7
20171123102332 25 0 0.0 0.0 0.00 0.02 0.00 73 1022.7
20171123102003 25 0 0.0 0.0 0.00 0.03 0.00 73 1022.8
20171123101332 25 0 0.0 0.0 0.00 0.03 0.00 72 1022.9
20171123101004 25 0 0.0 0.0 0.00 0.04 0.00 72 1022.8
20171123100332 26 0 0.0 0.0 0.00 0.04 0.00 71 1022.9
20171123100004 26 0 0.0 0.0 0.00 0.04 0.00 71 1022.9
20171123095331 26 0 0.0 0.0 0.00 0.05 0.00 71 1022.9
20171123095003 26 0 0.0 0.0 0.00 0.05 0.00 71 1022.9
20171123094331 26 0 0.0 0.0 0.00 0.05 0.00 70 1022.8
20171123094004 26 0 0.0 0.0 0.00 0.06 0.00 70 1022.8
20171123093331 26 0 0.0 0.0 0.00 0.06 0.00 70 1022.8
20171123093004 26 0 0.0 0.0 0.00 0.07 0.00 69 1022.7
20171123092331 27 0 0.0 0.0 0.00 0.08 0.00 69 1022.7
20171123092005 27 0 0.0 0.0 0.00 0.08 0.00 69 1022.7
20171123091331 27 0 0.0 0.0 0.00 0.08 0.00 70 1022.8
20171123091004 27 0 0.0 0.0 0.00 0.08 0.00 70 1022.8
20171123090331 27 0 0.0 0.0 0.00 0.08 0.00 70 1022.9
20171123090004 27 0 0.0 0.0 0.00 0.08 0.00 70 1022.9
20171123085331 27 0 0.0 0.0 0.00 0.08 0.00 71 1023.0
20171123085003 27 0 0.0 0.0 0.00 0.08 0.00 71 1023.0
20171123084339 27 0 0.0 0.0 0.00 0.08 0.00 69 1023.0
20171123084301 27 0 0.0 0.0 0.00 0.08 0.00 69 1023.0
20171123084004 27 0 0.0 0.0 0.00 0.08 0.00 69 1023.0
20171123083335 27 0 0.0 0.0 0.00 0.08 0.00 68 1023.1
20171123083301 27 0 0.0 0.0 0.00 0.08 0.00 68 1023.1
20171123083005 28 0 0.0 0.0 0.00 0.08 0.00 67 1023.1
20171123082231 27 0 0.0 0.0 0.00 0.08 0.00 67 1023.0
20171123082000 27 0 0.0 0.0 0.00 0.08 0.00 67 1023.0
20171123081208 28 304 0.0 0.0 0.00 0.08 0.00 65 1022.9
20171123080004 28 304 0.0 0.0 0.00 0.08 0.00 65 1022.9
20171123075515 28 304 0.0 0.0 0.00 0.08 0.00 65 1022.9
20171123075004 28 304 0.0 0.0 0.00 0.08 0.00 66 1022.9
20171123074515 28 304 0.0 0.0 0.00 0.08 0.00 66 1022.9
20171123074005 28 304 0.0 0.0 0.00 0.08 0.00 66 1022.8
20171123073516 28 304 0.0 0.0 0.00 0.08 0.00 65 1022.9
20171123073004 28 304 0.0 0.0 0.00 0.08 0.00 64 1022.9
20171123072515 28 304 0.0 0.0 0.00 0.08 0.00 64 1022.9
20171123072004 28 304 0.0 0.0 0.00 0.08 0.00 64 1022.9
20171123071515 28 304 0.0 0.0 0.00 0.08 0.00 63 1022.9
20171123071004 28 304 0.0 0.0 0.00 0.08 0.00 62 1022.9
20171123070515 28 304 0.0 0.0 0.00 0.08 0.00 60 1022.8
20171123070003 28 304 0.0 0.0 0.00 0.08 0.00 60 1022.8
20171123065515 28 304 0.0 0.0 0.00 0.08 0.00 59 1022.8
20171123065004 29 304 0.0 0.0 0.00 0.08 0.00 58 1022.8
20171123064515 29 304 0.0 0.0 0.00 0.08 0.00 58 1022.8
20171123064005 29 304 0.0 0.0 0.00 0.08 0.00 58 1022.7
20171123063515 29 304 0.0 0.0 0.00 0.08 0.00 57 1022.7
20171123063004 29 304 0.0 0.0 0.00 0.08 0.00 57 1022.8
20171123062515 29 304 0.0 0.0 0.00 0.08 0.00 57 1022.8
20171123062004 29 304 0.0 0.0 0.00 0.08 0.00 56 1022.9
20171123061515 29 304 0.0 0.0 0.00 0.08 0.00 56 1022.8
20171123061004 29 304 0.0 0.0 0.00 0.08 0.00 56 1022.8
20171123060515 29 304 0.0 0.0 0.00 0.08 0.00 56 1022.8
20171123060004 29 304 0.0 0.0 0.00 0.08 0.00 56 1022.8
20171123055515 29 304 0.0 0.0 0.00 0.08 0.00 55 1022.7
20171123055005 29 304 0.0 0.0 0.00 0.08 0.00 55 1022.7
20171123054515 29 304 0.0 0.0 0.00 0.08 0.00 55 1022.9
20171123054004 29 304 0.0 0.0 0.00 0.08 0.00 54 1022.9
20171123053515 29 304 0.0 0.0 0.00 0.08 0.00 55 1023.0
20171123053003 29 304 0.0 0.0 0.00 0.08 0.00 55 1023.0
20171123052515 29 304 0.0 0.0 0.00 0.08 0.00 55 1023.1
20171123052004 29 304 0.0 0.0 0.00 0.08 0.00 55 1023.2
20171123051515 29 304 0.0 0.0 0.00 0.08 0.00 56 1023.4
20171123051005 30 304 0.0 0.0 0.00 0.08 0.00 57 1023.4
20171123050515 30 304 0.0 0.0 0.00 0.08 0.00 53 1023.4
20171123050004 30 304 0.0 0.0 0.00 0.08 0.00 50 1023.5
20171123045445 30 304 0.0 0.0 0.00 0.08 0.08 51 1023.5
20171123045004 30 304 0.0 0.0 0.00 0.08 0.08 50 1023.5
20171123044445 30 304 0.0 0.0 0.00 0.08 0.08 50 1023.7
20171123044004 30 304 0.0 0.0 0.00 0.08 0.08 50 1023.8
20171123043415 30 304 0.0 0.0 0.00 0.08 0.08 50 1023.7
20171123043004 30 304 0.0 0.0 0.00 0.08 0.08 50 1023.8
20171123042415 30 304 0.0 0.0 0.00 0.08 0.08 50 1023.8
20171123042003 29 304 0.0 0.0 0.00 0.08 0.08 51 1023.8
20171123041415 29 304 0.0 0.0 0.00 0.08 0.08 52 1023.8
20171123041004 29 304 0.0 0.0 0.00 0.08 0.08 52 1023.9
20171123040345 29 304 0.0 0.0 0.00 0.08 0.08 51 1023.9
20171123040004 30 304 0.0 0.0 0.00 0.08 0.08 51 1023.9
20171123035344 30 304 0.0 0.0 0.00 0.08 0.08 49 1023.9
20171123035004 30 304 0.0 0.0 0.00 0.08 0.08 49 1024.0
20171123034345 30 304 0.0 0.0 0.00 0.08 0.08 49 1023.8
20171123034004 30 304 0.0 0.0 0.00 0.08 0.08 50 1023.7
20171123033344 30 304 0.0 0.0 0.00 0.08 0.08 50 1023.7
20171123033004 30 304 0.0 0.0 0.00 0.08 0.08 50 1023.7
20171123032344 29 304 0.0 0.0 0.00 0.08 0.08 50 1023.5
20171123032004 29 304 0.0 0.0 0.00 0.08 0.08 50 1023.5
20171123031344 29 304 0.0 0.0 0.00 0.08 0.08 50 1023.5
20171123031004 29 304 0.0 0.0 0.00 0.08 0.08 50 1023.5
20171123030344 29 304 0.0 0.0 0.00 0.08 0.08 48 1023.5
20171123030004 29 304 0.0 0.0 0.00 0.08 0.08 48 1023.5
20171123025344 30 304 0.0 0.0 0.00 0.08 0.08 47 1023.5
20171123025004 30 304 0.0 0.0 0.00 0.08 0.08 47 1023.4
20171123024344 30 304 0.0 0.0 0.00 0.08 0.08 46 1023.3
20171123024004 30 304 0.0 0.0 0.00 0.08 0.08 46 1023.3
20171123023344 30 304 0.0 0.0 0.00 0.08 0.08 46 1023.4
20171123023003 30 304 0.0 0.0 0.00 0.08 0.08 46 1023.3
20171123022344 30 304 0.0 0.0 0.00 0.08 0.08 46 1023.4
20171123022004 30 304 0.0 0.0 0.00 0.08 0.08 46 1023.5
20171123021314 30 304 0.0 0.0 0.00 0.08 0.08 45 1023.7
20171123021004 30 304 0.0 0.0 0.00 0.08 0.08 45 1023.7
20171123020244 31 304 0.0 0.0 0.00 0.08 0.08 44 1023.8
20171123020004 31 304 0.0 0.0 0.00 0.08 0.08 44 1023.9
20171123015244 31 304 0.0 0.0 0.00 0.08 0.08 43 1024.0
20171123015004 31 304 0.0 0.0 0.00 0.08 0.08 43 1024.0
20171123014244 31 304 0.0 0.0 0.00 0.08 0.08 43 1024.1
20171123014004 31 304 0.0 0.0 0.00 0.08 0.08 43 1024.1
20171123013244 31 304 0.0 0.0 0.00 0.08 0.08 43 1024.2
20171123013004 31 304 0.0 0.0 0.00 0.08 0.08 42 1024.2
20171123012244 31 304 0.0 0.0 0.00 0.08 0.08 42 1024.3
20171123012004 31 304 0.0 0.0 0.00 0.08 0.08 42 1024.4
20171123011318 31 304 0.0 0.0 0.00 0.08 0.08 42 1024.5
20171123011244 31 304 0.0 0.0 0.00 0.08 0.08 42 1024.5
20171123011004 31 304 0.0 0.0 0.00 0.08 0.08 42 1024.5
20171123010214 31 304 0.0 0.0 0.00 0.08 0.08 43 1024.6
20171123010004 31 304 0.0 0.0 0.00 0.08 0.08 43 1024.6
20171123005214 31 304 0.0 0.0 0.00 0.08 0.08 43 1024.7
20171123005004 31 304 0.0 0.0 0.00 0.08 0.08 43 1024.7
20171123004214 31 304 0.0 0.0 0.00 0.08 0.08 43 1024.8
20171123004004 31 304 0.0 0.0 0.00 0.08 0.08 43 1024.8
20171123003144 31 304 0.0 0.0 0.00 0.08 0.08 44 1024.9
20171123003003 31 304 0.0 0.0 0.00 0.08 0.08 44 1024.9
20171123002114 31 304 0.0 0.0 0.00 0.08 0.08 44 1024.9
20171123002003 31 304 0.0 0.0 0.00 0.08 0.08 44 1024.9
20171123001114 31 304 0.0 0.0 0.00 0.08 0.08 45 1024.9
20171123001004 31 304 0.0 0.0 0.00 0.08 0.08 45 1024.8
20171123000044 32 304 0.0 0.0 0.00 0.08 0.08 46 1024.8
20171123000003 32 304 0.0 0.0 0.00 0.08 0.08 46 1024.8
20171122235014 32 304 0.0 0.0 0.00 0.08 0.08 45 1024.8
20171122235004 32 304 0.0 0.0 0.00 0.08 0.08 45 1024.8
20171122234004 32 304 0.0 8.0 0.00 0.08 0.08 45 1024.8
20171122233944 32 304 0.0 0.0 0.00 0.08 0.08 45 1024.8
20171122233005 32 329 0.0 0.0 0.00 0.08 0.08 46 1024.7
20171122232944 32 329 0.0 0.0 0.00 0.08 0.08 46 1024.6
20171122232003 32 329 0.0 7.0 0.00 0.08 0.08 48 1024.5
20171122231944 32 329 0.0 0.0 0.00 0.08 0.08 48 1024.5
20171122231004 32 294 1.0 7.0 0.00 0.08 0.08 49 1024.4
20171122230944 32 294 1.0 0.0 0.00 0.08 0.08 49 1024.3
20171122230003 32 291 1.0 7.0 0.00 0.08 0.08 50 1024.3
20171122225944 32 297 2.0 5.0 0.00 0.08 0.08 50 1024.4
20171122225004 32 322 0.0 0.0 0.00 0.08 0.08 49 1024.4
20171122224944 32 322 0.0 0.0 0.00 0.08 0.08 49 1024.4
20171122223944 32 322 0.0 0.0 0.00 0.08 0.08 48 1024.3
20171122223004 32 322 0.0 7.0 0.00 0.08 0.08 47 1024.1
20171122222914 32 322 0.0 0.0 0.00 0.08 0.08 47 1024.1
20171122222004 33 312 0.0 7.0 0.00 0.08 0.08 47 1024.0
20171122221844 33 312 0.0 0.0 0.00 0.08 0.08 47 1023.9
20171122221003 33 296 0.0 0.0 0.00 0.08 0.08 48 1023.8
20171122220844 33 296 0.0 0.0 0.00 0.08 0.08 48 1023.7
20171122220004 33 296 0.0 0.0 0.00 0.08 0.08 50 1023.7
20171122215814 33 296 0.0 0.0 0.00 0.08 0.08 50 1023.6
20171122215004 33 296 0.0 0.0 0.00 0.08 0.08 51 1023.5
20171122214744 33 296 0.0 0.0 0.00 0.08 0.08 51 1023.5
20171122214003 33 296 0.0 9.0 0.00 0.08 0.08 50 1023.5
20171122213744 33 336 0.0 3.0 0.00 0.08 0.08 49 1023.6
20171122213003 33 304 0.0 0.0 0.00 0.08 0.08 50 1023.3
20171122212714 33 304 0.0 0.0 0.00 0.08 0.08 49 1023.3
20171122212003 33 304 1.0 9.0 0.00 0.08 0.08 48 1023.1
20171122211714 33 288 2.0 9.0 0.00 0.08 0.08 48 1023.0
20171122211003 34 297 3.0 10.0 0.01 0.08 0.08 47 1022.9
20171122210644 34 309 1.0 7.0 0.01 0.08 0.08 46 1022.8
20171122210004 34 311 0.0 5.0 0.01 0.08 0.08 44 1022.7
20171122205614 34 311 0.0 0.0 0.01 0.08 0.08 44 1022.7
20171122205004 34 316 1.0 5.0 0.01 0.08 0.08 44 1022.6
20171122204544 34 328 0.0 0.0 0.01 0.08 0.08 44 1022.6
20171122204003 34 328 0.0 7.0 0.01 0.08 0.08 46 1022.6
20171122203544 34 328 0.0 0.0 0.01 0.08 0.08 46 1022.7
20171122202544 34 318 0.0 0.0 0.01 0.08 0.08 50 1022.5
20171122202004 34 351 1.0 8.0 0.01 0.08 0.08 52 1022.5
20171122201544 34 326 2.0 2.0 0.00 0.07 0.07 53 1022.4
20171122201003 34 0 5.0 8.0 0.00 0.07 0.07 57 1022.3
20171122200514 34 356 0.0 0.0 0.00 0.07 0.07 59 1022.4
20171122200004 34 319 0.0 6.0 0.00 0.07 0.07 60 1022.5
20171122195514 34 319 0.0 0.0 0.00 0.07 0.07 60 1022.6
20171122195003 34 345 2.0 7.0 0.00 0.07 0.07 61 1022.5
20171122194514 33 344 0.0 0.0 0.00 0.07 0.07 60 1022.5
20171122194004 33 345 3.0 6.0 0.00 0.07 0.07 61 1022.5
20171122193514 33 342 0.0 0.0 0.00 0.07 0.07 61 1022.4
20171122193004 33 284 1.0 7.0 0.00 0.07 0.07 61 1022.4
20171122192514 34 352 5.0 5.0 0.00 0.07 0.07 60 1022.5
20171122192003 34 348 2.0 8.0 0.00 0.07 0.07 58 1022.5
20171122191514 34 354 1.0 0.0 0.00 0.07 0.07 57 1022.4
20171122191004 34 0 3.0 9.0 0.00 0.07 0.07 56 1022.3
20171122190514 35 292 0.0 0.0 0.00 0.07 0.07 55 1022.3
20171122190004 35 311 3.0 8.0 0.00 0.07 0.07 56 1022.2
20171122185513 35 336 2.0 6.0 0.00 0.07 0.07 55 1022.2
20171122185004 35 322 6.0 8.0 0.00 0.07 0.07 55 1022.2
20171122184513 35 337 0.0 0.0 0.00 0.07 0.07 55 1022.2
20171122184003 35 334 5.0 10.0 0.00 0.07 0.07 55 1022.2
20171122183513 35 299 3.0 7.0 0.00 0.07 0.07 56 1022.2
20171122183004 35 312 5.0 9.0 0.00 0.07 0.07 57 1022.2
20171122182513 35 306 5.0 8.0 0.00 0.07 0.07 57 1022.3
20171122182004 35 323 3.0 8.0 0.00 0.07 0.07 57 1022.2
20171122181513 34 358 5.0 5.0 0.00 0.07 0.07 57 1022.3
20171122181004 34 314 5.0 12.0 0.00 0.07 0.07 58 1022.3
20171122180513 34 328 2.0 6.0 0.00 0.07 0.07 58 1022.2
20171122180004 34 315 4.0 8.0 0.00 0.07 0.07 60 1022.2
20171122175443 34 325 5.0 6.0 0.00 0.07 0.07 60 1022.2
20171122175004 34 324 5.0 12.0 0.00 0.07 0.07 60 1022.2
20171122174443 35 338 3.0 5.0 0.00 0.07 0.07 61 1022.3
20171122173443 35 327 2.0 9.0 0.00 0.07 0.07 60 1022.2
20171122173004 35 319 6.0 14.0 0.00 0.07 0.07 61 1022.2
20171122172414 35 328 5.0 7.0 0.00 0.07 0.07 63 1022.1
20171122172004 35 302 0.0 8.0 0.00 0.07 0.07 64 1022.2
20171122171343 35 305 0.0 0.0 0.00 0.07 0.07 64 1022.1
20171122171004 35 337 3.0 6.0 0.00 0.07 0.07 65 1022.1
20171122170343 35 316 0.0 0.0 0.00 0.07 0.07 65 1022.2
20171122170003 35 298 3.0 9.0 0.00 0.07 0.07 63 1022.2
20171122165343 35 325 2.0 5.0 0.00 0.07 0.07 63 1022.2
20171122165003 35 322 2.0 13.0 0.00 0.07 0.07 63 1022.0
20171122164313 35 326 6.0 8.0 0.00 0.07 0.07 64 1022.0
20171122164004 35 297 6.0 13.0 0.00 0.07 0.07 64 1022.1
20171122163243 35 304 6.0 8.0 0.00 0.07 0.07 66 1022.1
20171122163004 35 300 6.0 9.0 0.00 0.07 0.07 66 1022.1
20171122162213 35 349 0.0 0.0 0.00 0.07 0.07 69 1022.1
20171122162003 35 349 0.0 7.0 0.00 0.07 0.07 69 1022.0
20171122161213 35 323 0.0 0.0 0.00 0.07 0.07 73 1022.0
20171122160213 35 337 6.0 9.0 0.00 0.07 0.07 76 1022.0
20171122155213 35 315 0.0 0.0 0.00 0.07 0.07 82 1021.8
20171122155004 35 315 0.0 7.0 0.00 0.07 0.07 82 1021.8
20171122154143 35 320 0.0 0.0 0.00 0.07 0.07 84 1021.8
20171122154003 35 320 0.0 0.0 0.00 0.07 0.07 84 1021.8
20171122153113 35 320 0.0 0.0 0.00 0.07 0.07 87 1021.9
20171122153004 35 320 0.0 0.0 0.00 0.07 0.07 87 1021.9
20171122152113 34 320 0.0 0.0 0.00 0.07 0.07 90 1021.8
20171122152006 34 320 0.0 8.0 0.00 0.07 0.07 90 1021.8
20171122151043 34 308 0.0 0.0 0.00 0.07 0.07 91 1021.7
20171122151004 34 308 0.0 0.0 0.00 0.07 0.07 91 1021.7
20171122150043 34 308 0.0 0.0 0.00 0.07 0.07 91 1021.5
20171122150003 34 308 0.0 0.0 0.00 0.07 0.07 91 1021.5
20171122145013 34 308 0.0 0.0 0.00 0.07 0.07 92 1021.4
20171122145004 34 308 0.0 0.0 0.00 0.07 0.07 92 1021.4
20171122144013 34 308 0.0 0.0 0.00 0.07 0.07 92 1021.2
20171122144004 34 308 0.0 0.0 0.00 0.07 0.07 92 1021.2
20171122143013 34 308 0.0 0.0 0.00 0.07 0.07 92 1021.0
20171122143004 34 308 0.0 0.0 0.00 0.07 0.07 92 1021.0
20171122142013 34 308 0.0 0.0 0.00 0.07 0.07 91 1020.8
20171122142004 34 308 0.0 0.0 0.00 0.07 0.07 91 1020.8
20171122141013 34 308 0.0 0.0 0.00 0.07 0.07 91 1020.8
20171122140013 35 308 0.0 0.0 0.00 0.07 0.07 91 1020.6
20171122135013 35 308 0.0 0.0 0.00 0.07 0.07 91 1020.3
20171122135003 35 308 0.0 0.0 0.00 0.07 0.07 91 1020.3
20171122134013 35 308 0.0 0.0 0.00 0.07 0.07 92 1020.2
20171122134003 35 308 0.0 0.0 0.00 0.07 0.07 92 1020.2
20171122132943 35 308 0.0 0.0 0.00 0.07 0.07 92 1020.2
20171122132004 35 308 0.0 0.0 0.00 0.07 0.07 92 1020.1
20171122131913 35 308 0.0 0.0 0.00 0.07 0.07 92 1020.1
20171122131003 35 308 0.0 0.0 0.00 0.07 0.07 92 1020.0
20171122130913 35 308 0.0 0.0 0.00 0.07 0.07 92 1020.1
20171122130003 35 308 0.0 0.0 0.00 0.07 0.07 92 1019.9
20171122125912 35 308 0.0 0.0 0.00 0.07 0.07 92 1020.0
20171122125005 35 308 0.0 0.0 0.00 0.07 0.07 92 1019.8
20171122124912 35 308 0.0 0.0 0.00 0.07 0.07 92 1019.8
20171122124003 35 308 0.0 0.0 0.00 0.07 0.07 92 1019.6
20171122123912 35 308 0.0 0.0 0.00 0.07 0.07 92 1019.5
20171122123004 35 304 0.0 6.0 0.00 0.07 0.07 92 1019.4
20171122122912 35 294 0.0 0.0 0.00 0.07 0.07 92 1019.4
20171122122003 35 306 0.0 0.0 0.00 0.07 0.07 92 1019.2
20171122121912 35 306 0.0 0.0 0.00 0.07 0.07 92 1019.2
20171122121004 35 306 0.0 1.0 0.00 0.07 0.07 92 1019.0
20171122120912 35 306 0.0 0.0 0.00 0.07 0.07 92 1019.1
20171122120004 35 306 0.0 7.0 0.00 0.07 0.07 92 1018.9
20171122115912 35 306 0.0 0.0 0.00 0.07 0.07 92 1018.9
20171122115004 35 278 0.0 0.0 0.00 0.07 0.07 92 1018.6
20171122114842 35 278 0.0 0.0 0.00 0.07 0.07 92 1018.6
20171122114004 35 278 0.0 0.0 0.00 0.07 0.07 92 1018.4
20171122113842 35 278 0.0 0.0 0.00 0.07 0.07 92 1018.4
20171122113004 35 278 0.0 0.0 0.00 0.07 0.07 92 1018.2
20171122112812 35 278 0.0 0.0 0.00 0.07 0.07 92 1018.2